sat.trackr.live / text

‹ back to catalog

SUPERVIEW NEO-3 01

NORAD 59510 · 2024-072A

PAYLOAD ACTIVE UNKNOWN

§ Identity

Operator
Country
PRC
Launch date
2024-04-15
Launch site
JSC
Launch vehicle
Mass (kg)
RCS (m²)

External: N2YO · Heavens-Above · Gunter

§ Orbital elements

Epoch: 2026-05-25T04:32:35.534688Z

Period
94.45 min
Inclination
97.4139°
Eccentricity
0.0002288
Mean motion
15.24645651 rev/d
Perigee alt
490.3 km
Apogee alt
493.4 km
Semi-major
6,870.0 km
B*
3.8069e-4
RAAN
225.5482°
Arg perigee
141.7381°
Mean anomaly
218.4019°
Rev number
11,720

§ Raw data

SUPERVIEW NEO-3 011 59510U 24072A   26145.18930017  .00009332  00000+0  38069-3 0  99972 59510  97.4139 225.5482 0002288 141.7381 218.4019 15.24645651117203

JSON: /api/v1/satellites/59510 · /tle

For live sub-satellite position, see the globe view (requires WebGL).

§ Visibility from observer

Set your observer location to see the next 7 days of passes ≥ 10°. The values pass through the URL so the page stays shareable.

No JS? Fill the form by hand. The geolocation button needs JavaScript.